This is the latest recevied weather packets stored in our database for station/object KU9TRY. If no packets are shown the sender has not sent any weather packets the latest 10 day(s).
| Time | Temp. | Humidity | Pressure | Rain* | Wind** | Luminosity | Snow |
|---|---|---|---|---|---|---|---|
| 1787618777 | 22.22° C | 74% | 1017.1 hPa | 0 mm | - | 0 W/m² | - |
| 1787618474 | 22.22° C | 72% | 1016.8 hPa | 0 mm | - | 0 W/m² | - |
| 1787618170 | 22.22° C | 70% | 1016.9 hPa | 0 mm | - | 0 W/m² | - |
| 1787617865 | 22.22° C | 71% | 1017 hPa | 0 mm | - | 1 W/m² | - |
| 1787617561 | 23.33° C | 69% | 1016.8 hPa | 0 mm | - | 1 W/m² | - |
| 1787617260 | 23.33° C | 66% | 1017 hPa | 0 mm | - | 3 W/m² | - |
| 1787616972 | 23.89° C | 65% | 1016.8 hPa | 0 mm | - | 4 W/m² | - |
| 1787616654 | 23.89° C | 60% | 1016.7 hPa | 0 mm | - | 7 W/m² | - |
| 1787616353 | 24.44° C | 64% | 1016.5 hPa | 0 mm | - | 9 W/m² | - |
| 1787616051 | 25° C | 59% | 1016.6 hPa | 0 mm | - | 11 W/m² | - |
| 1787615746 | 25° C | 59% | 1016.4 hPa | 0 mm | - | 14 W/m² | - |
| 1787615446 | 25° C | 59% | 1016.7 hPa | 0 mm | - | 16 W/m² | - |
| 1787615143 | 25° C | 58% | 1016.5 hPa | 0 mm | - | 18 W/m² | - |
| 1787614838 | 25° C | 59% | 1016.3 hPa | 0 mm | - | 20 W/m² | - |
| 1787614534 | 25° C | 59% | 1016.3 hPa | 0 mm | - | 22 W/m² | - |
| 1787614232 | 25.56° C | 60% | 1016.3 hPa | 0 mm | - | 23 W/m² | - |
| 1787613928 | 25.56° C | 58% | 1016.3 hPa | 0 mm | - | 23 W/m² | - |
| 1787613623 | 26.11° C | 57% | 1016.3 hPa | 0 mm | - | 24 W/m² | - |
| 1787613323 | 26.67° C | 57% | 1016.3 hPa | 0 mm | - | 25 W/m² | - |
| 1787613020 | 26.67° C | 50% | 1016.2 hPa | 0 mm | - | 26 W/m² | - |
| 1787612716 | 26.11° C | 56% | 1016.2 hPa | 0 mm | - | 27 W/m² | - |
| 1787612412 | 26.11° C | 58% | 1016.3 hPa | 0 mm | - | 27 W/m² | - |
| 1787612107 | 26.11° C | 60% | 1016.3 hPa | 0 mm | - | 28 W/m² | - |
| 1787611803 | 26.11° C | 59% | 1016.3 hPa | 0 mm | - | 33 W/m² | - |
| 1787611499 | 26.11° C | 55% | 1016.3 hPa | 0 mm | - | 40 W/m² | - |
* Rain latest hour (hover to see other rain measurements)
** Current wind speed in m/s (hover to see current wind gust speed)